Data for 04/07/2007

Time Sea-Level Adjusted Pressure Absolute Pressure Temperature Relative Humidity Dew Point   
(mb) (inHg) (mb) (inHg) (C) (F) (%) (C) (F)
00:05 1023 30.21 852 25.16 -4.9 23.2 91 -6.1 21
00:10 1023 30.21 852 25.16 -4.9 23.1 92 -6.1 21
00:15 1023 30.21 852 25.16 -5 23 92 -6.2 20.9
00:20 1023 30.21 852 25.16 -4.9 23.1 91 -6.1 21
00:25 1023 30.21 852 25.16 -5 23 91 -6.2 20.9
00:30 1023 30.21 852 25.16 -5 23 91 -6.2 20.8
00:35 1023 30.21 852 25.16 -5 23 91 -6.2 20.8
00:40 1023 30.21 852 25.16 -5 23.1 91 -6.2 20.8
00:45 1023 30.21 852 25.16 -5 22.9 91 -6.3 20.7
00:50 1022 30.18 852 25.16 -5.1 22.9 91 -6.3 20.7
00:55 1022 30.18 852 25.16 -5.2 22.7 92 -6.3 20.6
01:00 1022 30.18 852 25.16 -5.1 22.8 91 -6.4 20.5
01:05 1022 30.18 852 25.16 -5.1 22.8 91 -6.4 20.5
01:10 1022 30.18 852 25.16 -5.1 22.8 91 -6.4 20.5
01:15 1022 30.18 852 25.16 -5.2 22.7 91 -6.4 20.5
01:20 1022 30.18 851 25.13 -5.2 22.7 91 -6.5 20.3
01:25 1022 30.18 851 25.13 -5.2 22.7 91 -6.5 20.4
01:30 1022 30.18 851 25.13 -5.2 22.7 91 -6.5 20.3
01:35 1022 30.18 851 25.13 -5.2 22.6 90 -6.5 20.2
01:40 1022 30.18 851 25.13 -5.2 22.6 91 -6.5 20.4
01:45 1022 30.18 851 25.13 -5.2 22.6 91 -6.5 20.2
01:50 1022 30.18 851 25.13 -5.2 22.6 91 -6.5 20.2
01:55 1022 30.18 851 25.13 -5.2 22.6 90 -6.6 20.2
02:00 1022 30.18 851 25.13 -5.2 22.6 90 -6.6 20.1
02:05 1022 30.18 851 25.13 -5.2 22.6 91 -6.5 20.2
02:10 1022 30.18 851 25.13 -5.3 22.5 91 -6.6 20.1
02:15 1022 30.18 851 25.13 -5.4 22.4 91 -6.6 20.1
02:20 1021 30.15 851 25.13 -5.4 22.3 91 -6.6 20.1
02:25 1022 30.18 851 25.13 -5.4 22.2 91 -6.6 20.1
02:30 1021 30.15 851 25.13 -5.4 22.2 91 -6.7 20
02:35 1021 30.15 851 25.13 -5.4 22.2 90 -6.8 19.8
02:40 1021 30.15 851 25.13 -5.5 22.1 90 -6.8 19.7
02:45 1021 30.15 851 25.13 -5.5 22.1 91 -6.7 19.9
02:50 1021 30.15 850 25.1 -5.5 22.1 91 -6.7 19.9
02:55 1021 30.15 850 25.1 -5.6 22 91 -6.8 19.7
03:00 1021 30.15 850 25.1 -5.5 22 91 -6.7 19.9
03:05 1021 30.15 850 25.1 -5.6 22 91 -6.8 19.7
03:10 1021 30.15 850 25.1 -5.6 21.9 91 -6.9 19.6
03:15 1021 30.15 850 25.1 -5.6 21.8 91 -6.9 19.6
03:20 1021 30.15 850 25.1 -5.7 21.8 91 -6.9 19.5
03:25 1021 30.15 850 25.1 -5.7 21.8 91 -7 19.5
03:30 1021 30.15 850 25.1 -5.7 21.8 91 -7 19.4
03:35 1021 30.15 850 25.1 -5.7 21.7 91 -7 19.4
03:40 1021 30.15 850 25.1 -5.8 21.6 91 -7 19.3
03:45 1021 30.15 850 25.1 -5.8 21.5 91 -7.1 19.3
03:50 1021 30.15 850 25.1 -5.9 21.4 91 -7.1 19.2
03:55 1021 30.15 850 25.1 -5.9 21.3 92 -7.1 19.2
04:00 1021 30.15 850 25.1 -5.9 21.3 91 -7.2 19.1
04:05 1021 30.15 850 25.1 -5.9 21.3 90 -7.3 18.8
04:10 1021 30.15 850 25.1 -5.9 21.3 90 -7.4 18.8
04:15 1021 30.15 850 25.1 -5.9 21.4 89 -7.4 18.7
04:20 1021 30.15 850 25.1 -5.9 21.3 90 -7.4 18.7
04:25 1020 30.12 850 25.1 -6 21.2 90 -7.4 18.7
04:30 1020 30.12 850 25.1 -6 21.1 90 -7.4 18.8
04:35 1020 30.12 850 25.1 -6.1 21.1 91 -7.4 18.8
04:40 1020 30.12 850 25.1 -6 21.1 90 -7.4 18.8
04:45 1020 30.12 850 25.1 -6 21.1 90 -7.4 18.7
04:50 1020 30.12 850 25.1 -6.1 21.1 90 -7.4 18.7
04:55 1020 30.12 850 25.1 -6.1 21 91 -7.4 18.7
05:00 1020 30.12 850 25.1 -6.2 20.9 91 -7.4 18.6
05:05 1020 30.12 850 25.1 -6.1 21 90 -7.5 18.6
05:10 1020 30.12 850 25.1 -6.2 20.9 91 -7.5 18.5
05:15 1020 30.12 850 25.1 -6.1 20.9 91 -7.5 18.6
05:20 1020 30.12 850 25.1 -6.1 21 90 -7.5 18.5
05:25 1020 30.12 849 25.07 -6.2 20.9 90 -7.6 18.4
05:30 1020 30.12 849 25.07 -6.2 20.9 90 -7.6 18.4
05:35 1020 30.12 850 25.1 -6.2 20.9 90 -7.6 18.3
05:40 1020 30.12 849 25.07 -6.2 20.9 90 -7.6 18.4
05:45 1020 30.12 849 25.07 -6.2 20.8 90 -7.6 18.3
05:50 1020 30.12 849 25.07 -6.2 20.8 90 -7.6 18.4
05:55 1020 30.12 849 25.07 -6.3 20.7 90 -7.6 18.3
06:00 1020 30.12 849 25.07 -6.3 20.7 90 -7.6 18.3
06:05 1020 30.12 849 25.07 -6.3 20.6 90 -7.7 18.1
06:10 1020 30.12 849 25.07 -6.3 20.6 90 -7.7 18.1
06:15 1020 30.12 849 25.07 -6.3 20.6 90 -7.7 18.1
06:20 1020 30.12 849 25.07 -6.4 20.5 90 -7.8 18
06:25 1020 30.12 849 25.07 -6.4 20.6 89 -7.9 17.9
06:30 1020 30.12 849 25.07 -6.4 20.5 89 -7.9 17.8
06:35 1020 30.12 849 25.07 -6.5 20.4 90 -7.9 17.8
06:40 1020 30.12 849 25.07 -6.5 20.3 90 -7.9 17.7
06:45 1020 30.12 849 25.07 -6.5 20.3 90 -7.9 17.8
06:50 1020 30.12 849 25.07 -6.5 20.3 90 -7.9 17.7
06:55 1020 30.12 849 25.07 -6.6 20.1 90 -8 17.5
07:00 1020 30.12 849 25.07 -6.6 20.1 89 -8.1 17.5
07:05 1020 30.12 849 25.07 -6.6 20.1 90 -8 17.6
07:10 1020 30.12 849 25.07 -6.6 20.2 89 -8 17.5
07:15 1020 30.12 849 25.07 -6.6 20.2 89 -8.1 17.4
07:20 1020 30.12 849 25.07 -6.6 20.1 89 -8.1 17.4
07:25 1020 30.12 849 25.07 -6.6 20.1 89 -8.1 17.4
07:30 1020 30.12 849 25.07 -6.6 20.1 89 -8.1 17.4
07:35 1020 30.12 849 25.07 -6.6 20.2 89 -8.1 17.4
07:40 1020 30.12 849 25.07 -6.6 20.1 89 -8.2 17.3
07:45 1020 30.12 849 25.07 -6.6 20.2 88 -8.2 17.2
07:50 1020 30.12 849 25.07 -6.5 20.3 88 -8.2 17.2
07:55 1020 30.12 849 25.07 -6.5 20.3 87 -8.3 17.1
08:00 1020 30.12 849 25.07 -6.5 20.4 87 -8.3 17
08:05 1020 30.12 849 25.07 -6.4 20.4 87 -8.3 17
08:10 1020 30.12 849 25.07 -6.4 20.5 87 -8.3 17.1
08:15 1020 30.12 849 25.07 -6.4 20.5 87 -8.3 17.1
08:20 1020 30.12 849 25.07 -6.4 20.5 86 -8.3 17.1
08:25 1020 30.12 849 25.07 -6.4 20.6 87 -8.2 17.2
08:30 1020 30.12 849 25.07 -6.3 20.6 86 -8.3 17.1
08:35 1020 30.12 849 25.07 -6.3 20.6 86 -8.3 17.1
08:40 1020 30.12 849 25.07 -6.3 20.7 86 -8.3 17.1
08:45 1020 30.12 849 25.07 -6.2 20.8 85 -8.3 17.1
08:50 1020 30.12 849 25.07 -6.2 20.8 86 -8.3 17.1
08:55 1020 30.12 849 25.07 -6.2 20.9 85 -8.3 17.1
09:00 1020 30.12 849 25.07 -6.2 20.8 85 -8.3 17.1
09:05 1019 30.09 849 25.07 -6.1 21.1 84 -8.3 17.1
09:10 1019 30.09 849 25.07 -6 21.2 85 -8.2 17.3
09:15 1019 30.09 849 25.07 -6 21.2 85 -8.2 17.3
09:20 1019 30.09 849 25.07 -6 21.1 85 -8.2 17.2
09:25 1019 30.09 849 25.07 -6 21.1 85 -8.2 17.3
09:30 1019 30.09 849 25.07 -5.9 21.4 84 -8.2 17.3
09:35 1019 30.09 849 25.07 -5.9 21.5 84 -8.2 17.3
09:40 1019 30.09 848 25.04 -5.8 21.6 84 -8.1 17.5
09:45 1019 30.09 848 25.04 -5.8 21.6 84 -8.1 17.5
09:50 1019 30.09 848 25.04 -5.7 21.8 83 -8.1 17.4
09:55 1019 30.09 848 25.04 -5.6 22 82 -8.1 17.3
10:00 1019 30.09 848 25.04 -5.4 22.3 82 -8.1 17.5
10:05 1019 30.09 848 25.04 -5.2 22.6 81 -8 17.6
10:10 1019 30.09 848 25.04 -5.2 22.6 81 -8.1 17.5
10:15 1019 30.09 848 25.04 -5 22.9 81 -7.9 17.8
10:20 1019 30.09 848 25.04 -5 23 80 -7.9 17.9
10:25 1019 30.09 848 25.04 -5.1 22.8 81 -7.9 17.7
10:30 1019 30.09 848 25.04 -5.1 22.7 81 -8 17.6
10:35 1019 30.09 848 25.04 -5 23 80 -7.9 17.7
10:40 1019 30.09 848 25.04 -4.9 23.2 80 -7.8 18
10:45 1019 30.09 848 25.04 -4.7 23.6 79 -7.8 17.9
10:50 1019 30.09 848 25.04 -4.7 23.5 78 -8 17.6
10:55 1019 30.09 848 25.04 -4.6 23.7 78 -8 17.6
11:00 1019 30.09 848 25.04 -4.6 23.8 77 -8 17.7
11:05 1019 30.09 848 25.04 -4.5 23.8 77 -7.9 17.8
11:10 1019 30.09 848 25.04 -4.5 23.9 77 -7.9 17.8
11:15 1019 30.09 848 25.04 -4.2 24.4 76 -7.8 17.9
11:20 1019 30.09 848 25.04 -4.1 24.6 75 -7.8 17.9
11:25 1019 30.09 848 25.04 -4.1 24.7 75 -7.8 17.9
11:30 1018 30.06 848 25.04 -4.1 24.7 75 -7.8 17.9
11:35 1018 30.06 848 25.04 -3.8 25.1 75 -7.6 18.2
11:40 1018 30.06 848 25.04 -3.5 25.8 73 -7.5 18.4
11:45 1018 30.06 847 25.01 -3.5 25.7 74 -7.5 18.5
11:50 1018 30.06 848 25.04 -3 26.6 70 -7.6 18.2
11:55 1018 30.06 847 25.01 -3.1 26.4 72 -7.5 18.5
12:00 1018 30.06 847 25.01 -2.8 26.9 70 -7.6 18.4
12:05 1018 30.06 847 25.01 -2.5 27.5 70 -7.2 19.1
12:10 1018 30.06 847 25.01 -2.6 27.4 71 -7.2 19
12:15 1018 30.06 847 25.01 -2.8 27 73 -7 19.3
12:20 1018 30.06 847 25.01 -2.7 27.2 72 -7.1 19.2
12:25 1018 30.06 847 25.01 -2.5 27.5 71 -7.1 19.3
12:30 1018 30.06 847 25.01 -2.5 27.5 72 -6.9 19.6
12:35 1018 30.06 847 25.01 -2.7 27.1 72 -7.1 19.2
12:40 1018 30.06 847 25.01 -2.5 27.5 71 -7.1 19.3
12:45 1018 30.06 847 25.01 -2.4 27.6 71 -7 19.5
12:50 1018 30.06 847 25.01 -2.2 28 71 -6.8 19.7
12:55 1018 30.06 847 25.01 -2 28.4 69 -6.9 19.6
13:00 1018 30.06 847 25.01 -1.6 29.1 68 -6.7 19.9
13:05 1017 30.03 847 25.01 -1.9 28.6 70 -6.7 20
13:10 1017 30.03 847 25.01 -1.8 28.7 69 -6.7 19.9
13:15 1018 30.06 847 25.01 -1.9 28.6 69 -6.8 19.8
13:20 1018 30.06 847 25.01 -1.3 29.7 68 -6.5 20.3
13:25 1017 30.03 847 25.01 -1.9 28.7 70 -6.6 20.1
13:30 1017 30.03 847 25.01 -1.5 29.3 68 -6.6 20.1
13:35 1017 30.03 847 25.01 -1.6 29.2 68 -6.8 19.8
13:40 1017 30.03 847 25.01 -1.4 29.4 67 -6.7 19.9
13:45 1017 30.03 847 25.01 -1.3 29.7 67 -6.6 20.2
13:50 1017 30.03 846 24.98 -1.1 30.1 67 -6.3 20.6
13:55 1017 30.03 847 25.01 -1.2 29.8 67 -6.5 20.3
14:00 1017 30.03 846 24.98 -0.8 30.5 67 -6.3 20.7
14:05 1017 30.03 846 24.98 -1.3 29.7 67 -6.7 20
14:10 1017 30.03 846 24.98 -1.2 29.9 66 -6.8 19.8
14:15 1017 30.03 846 24.98 -1 30.2 65 -6.8 19.7
14:20 1017 30.03 846 24.98 -1 30.2 66 -6.6 20.2
14:25 1017 30.03 846 24.98 -0.7 30.7 66 -6.4 20.5
14:30 1017 30.03 846 24.98 -0.9 30.4 66 -6.5 20.2
14:35 1017 30.03 846 24.98 -0.9 30.3 65 -6.8 19.8
14:40 1017 30.03 846 24.98 -0.8 30.5 65 -6.6 20.2
14:45 1017 30.03 846 24.98 -0.4 31.3 64 -6.4 20.5
14:50 1017 30.03 846 24.98 -0.5 31.1 64 -6.6 20.2
14:55 1016 30 846 24.98 -0.5 31.2 63 -6.7 19.9
15:00 1016 30 846 24.98 -0.5 31 64 -6.4 20.4
15:05 1016 30 845 24.95 -0.2 31.7 64 -6.1 21.1
15:10 1016 30 845 24.95 0.2 32.3 62 -6.2 20.8
15:15 1016 30 845 24.95 -0.1 31.8 64 -6.1 21
15:20 1016 30 845 24.95 0.2 32.3 62 -6.3 20.7
15:25 1016 30 845 24.95 0 32.1 62 -6.3 20.6
15:30 1016 30 845 24.95 -0.1 31.9 63 -6.2 20.8
15:35 1016 30 845 24.95 0.3 32.6 63 -6 21.2
15:40 1016 30 845 24.95 0.3 32.5 62 -6.1 20.9
15:45 1016 30 845 24.95 0.1 32.2 63 -6.2 20.8
15:50 1016 30 845 24.95 0.3 32.5 62 -6.2 20.9
15:55 1016 30 845 24.95 0.3 32.5 60 -6.5 20.3
16:00 1016 30 845 24.95 0.3 32.5 61 -6.4 20.5
16:05 1016 30 845 24.95 0.1 32.1 62 -6.3 20.7
16:10 1015 29.97 845 24.95 -0.1 31.8 63 -6.3 20.6
16:15 1015 29.97 845 24.95 0 32 62 -6.3 20.6
16:20 1015 29.97 845 24.95 0.2 32.3 62 -6.3 20.7
16:25 1015 29.97 845 24.95 -0.3 31.4 64 -6.4 20.5
16:30 1015 29.97 845 24.95 -0.6 30.9 64 -6.6 20.1
16:35 1015 29.97 844 24.92 -0.3 31.4 63 -6.5 20.3
16:40 1015 29.97 844 24.92 -0.4 31.4 64 -6.3 20.6
16:45 1015 29.97 844 24.92 -0.6 31 64 -6.6 20.1
16:50 1015 29.97 844 24.92 -0.6 31 64 -6.6 20.1
16:55 1015 29.97 844 24.92 -0.7 30.7 65 -6.5 20.2
17:00 1015 29.97 844 24.92 -0.8 30.5 64 -6.8 19.7
17:05 1015 29.97 844 24.92 -0.9 30.3 65 -6.7 20
17:10 1015 29.97 844 24.92 -0.8 30.5 64 -6.8 19.8
17:15 1015 29.97 844 24.92 -1 30.1 66 -6.7 20
17:20 1015 29.97 844 24.92 -1.3 29.7 67 -6.7 20
17:25 1015 29.97 844 24.92 -1.4 29.5 66 -6.9 19.6
17:30 1015 29.97 844 24.92 -1.4 29.4 68 -6.7 20
17:35 1015 29.97 844 24.92 -1.6 29.2 68 -6.8 19.8
17:40 1015 29.97 844 24.92 -1.5 29.4 67 -6.8 19.7
17:45 1015 29.97 844 24.92 -1.5 29.4 67 -6.8 19.7
17:50 1015 29.97 844 24.92 -1.4 29.5 67 -6.8 19.8
17:55 1015 29.97 844 24.92 -1.6 29.1 67 -6.9 19.6
18:00 1014 29.94 844 24.92 -1.9 28.5 69 -6.9 19.7
18:05 1014 29.94 844 24.92 -2 28.3 70 -6.8 19.7
18:10 1014 29.94 844 24.92 -2.1 28.2 69 -7 19.4
18:15 1014 29.94 844 24.92 -2.1 28.3 69 -6.9 19.5
18:20 1014 29.94 843 24.89 -2.3 27.9 70 -7 19.3
18:25 1014 29.94 844 24.92 -2.6 27.3 72 -7 19.5
18:30 1014 29.94 844 24.92 -2.6 27.2 72 -7 19.5
18:35 1014 29.94 844 24.92 -2.8 26.9 72 -7.1 19.2
18:40 1014 29.94 843 24.89 -3 26.7 73 -7.1 19.2
18:45 1014 29.94 843 24.89 -3 26.7 73 -7.1 19.3
18:50 1014 29.94 843 24.89 -3.1 26.3 75 -7 19.3
18:55 1014 29.94 844 24.92 -3.2 26.3 74 -7.1 19.2
19:00 1014 29.94 843 24.89 -3.2 26.2 74 -7.2 19.1
19:05 1014 29.94 843 24.89 -3.3 26 75 -7.1 19.2
19:10 1014 29.94 843 24.89 -3.3 26 74 -7.2 19
19:15 1014 29.94 843 24.89 -3.4 25.8 75 -7.3 18.8
19:20 1014 29.94 843 24.89 -3.5 25.7 76 -7.2 19
19:25 1014 29.94 843 24.89 -3.6 25.4 76 -7.2 19
19:30 1014 29.94 843 24.89 -3.7 25.3 77 -7.2 19
19:35 1014 29.94 843 24.89 -3.8 25.2 77 -7.2 19
19:40 1014 29.94 843 24.89 -3.9 25.1 78 -7.2 19
19:45 1014 29.94 843 24.89 -3.9 24.9 78 -7.3 18.9
19:50 1014 29.94 843 24.89 -4 24.8 78 -7.3 18.8
19:55 1014 29.94 843 24.89 -4.1 24.6 78 -7.4 18.8
20:00 1014 29.94 843 24.89 -4.2 24.5 79 -7.3 18.8
20:05 1014 29.94 843 24.89 -4.3 24.3 79 -7.3 18.8
20:10 1014 29.94 843 24.89 -4.3 24.2 80 -7.4 18.7
20:15 1014 29.94 843 24.89 -4.4 24.1 80 -7.4 18.7
20:20 1014 29.94 843 24.89 -4.5 24 80 -7.4 18.7
20:25 1014 29.94 843 24.89 -4.5 24 80 -7.3 18.8
20:30 1014 29.94 843 24.89 -4.6 23.8 81 -7.3 18.8
20:35 1014 29.94 843 24.89 -4.6 23.7 82 -7.3 18.9
20:40 1014 29.94 843 24.89 -4.6 23.8 82 -7.3 18.9
20:45 1014 29.94 843 24.89 -4.6 23.7 81 -7.3 18.8
20:50 1014 29.94 843 24.89 -4.6 23.7 82 -7.3 18.9
20:55 1014 29.94 843 24.89 -4.7 23.6 82 -7.3 18.8
21:00 1014 29.94 843 24.89 -4.6 23.6 82 -7.3 18.9
21:05 1014 29.94 843 24.89 -4.6 23.6 82 -7.3 18.9
21:10 1014 29.94 843 24.89 -4.7 23.6 82 -7.3 18.9
21:15 1014 29.94 843 24.89 -4.6 23.7 82 -7.2 19
21:20 1014 29.94 843 24.89 -4.7 23.6 82 -7.3 18.8
21:25 1014 29.94 843 24.89 -4.6 23.7 82 -7.3 18.9
21:30 1014 29.94 843 24.89 -4.7 23.6 82 -7.3 18.8
21:35 1014 29.94 843 24.89 -4.6 23.7 82 -7.3 18.9
21:40 1014 29.94 843 24.89 -4.6 23.7 81 -7.3 18.8
21:45 1014 29.94 843 24.89 -4.6 23.7 81 -7.4 18.8
21:50 1014 29.94 843 24.89 -4.6 23.7 81 -7.4 18.7
21:55 1014 29.94 843 24.89 -4.6 23.7 81 -7.4 18.7
22:00 1014 29.94 843 24.89 -4.6 23.8 81 -7.4 18.7
22:05 1014 29.94 843 24.89 -4.6 23.7 81 -7.4 18.7
22:10 1014 29.94 843 24.89 -4.7 23.6 81 -7.4 18.7
22:15 1014 29.94 843 24.89 -4.7 23.6 81 -7.4 18.7
22:20 1014 29.94 843 24.89 -4.7 23.6 81 -7.5 18.5
22:25 1014 29.94 843 24.89 -4.7 23.5 81 -7.4 18.6
22:30 1014 29.94 843 24.89 -4.8 23.4 81 -7.5 18.5
22:35 1014 29.94 843 24.89 -4.8 23.4 82 -7.5 18.6
22:40 1014 29.94 843 24.89 -4.7 23.5 81 -7.5 18.6
22:45 1014 29.94 843 24.89 -4.8 23.3 82 -7.4 18.6
22:50 1014 29.94 843 24.89 -4.8 23.4 82 -7.4 18.6
22:55 1014 29.94 843 24.89 -4.8 23.4 82 -7.4 18.6
23:00 1014 29.94 843 24.89 -4.7 23.5 81 -7.5 18.6
23:05 1014 29.94 843 24.89 -4.6 23.6 81 -7.4 18.6
23:10 1014 29.94 843 24.89 -4.7 23.6 81 -7.4 18.6
23:15 1014 29.94 843 24.89 -4.8 23.4 82 -7.4 18.6
23:20 1014 29.94 843 24.89 -4.8 23.4 82 -7.4 18.6
23:25 1014 29.94 843 24.89 -4.8 23.3 82 -7.4 18.7
23:30 1014 29.94 843 24.89 -4.9 23.2 83 -7.4 18.7
23:35 1014 29.94 843 24.89 -4.8 23.4 81 -7.5 18.6
23:40 1014 29.94 843 24.89 -4.7 23.5 82 -7.4 18.7
23:45 1013 29.91 843 24.89 -4.7 23.5 81 -7.5 18.6
23:50 1013 29.91 843 24.89 -4.8 23.4 82 -7.3 18.8
23:55 1013 29.91 843 24.89 -4.8 23.3 82 -7.4 18.7
24:00 1013 29.91 843 24.89 -4.8 23.4 82 -7.3 18.8